Weather reports worldwide

Advertisment
Donna Nook RAF, United Kingdom (3385): temperature & dewpoint: 31.07.2020 22:00:00 - 06.08.2020 22:00:00 (BST)Donna Nook RAF, United Kingdom (3385): wind speed & gusts: 31.07.2020 22:00:00 - 06.08.2020 22:00:00 (BST)Donna Nook RAF, United Kingdom (3385): wind direction: 31.07.2020 22:00:00 - 06.08.2020 22:00:00 (BST)Donna Nook RAF, United Kingdom (3385): reduced air pressure: 31.07.2020 22:00:00 - 06.08.2020 22:00:00 (BST)Donna Nook RAF, United Kingdom (3385): visibility: 31.07.2020 22:00:00 - 06.08.2020 22:00:00 (BST)
Date & Time tt [°C] td [°C] ff [km/h] ff [kn] fx [km/h] fx [kn] dd ppp [hPa] vv [km]
06.08.2020 22:00:00 18,8 16,9 11 6 - - SSE 1017,3 28
06.08.2020 21:00:00 19,8 17,3 11 6 - - SE 1017,0 27
06.08.2020 20:00:00 20,5 17,7 13 7 - - SE 1016,8 30
06.08.2020 19:00:00 20,7 17,7 15 8 - - SE 1016,5 6
06.08.2020 18:00:00 20,3 17,0 24 13 - - SE 1016,2 30
06.08.2020 17:00:00 21,0 17,3 28 15 - - ESE 1016,3 30
06.08.2020 16:00:00 24,1 16,8 15 8 - - SE 1016,3 30
06.08.2020 15:00:00 24,7 16,0 13 7 - - S 1016,3 30
06.08.2020 14:00:00 23,3 16,4 13 7 - - SE 1016,5 40
06.08.2020 13:00:00 21,9 15,6 11 6 - - SSW 1016,7 35
06.08.2020 12:00:00 20,3 15,5 15 8 - - S 1016,7 35
06.08.2020 11:00:00 19,2 16,2 13 7 - - SSW 1016,5 28
06.08.2020 10:00:00 18,8 16,4 11 6 - - S 1016,2 30
06.08.2020 09:00:00 18,6 15,9 15 8 - - S 1016,0 35
06.08.2020 08:00:00 18,1 16,6 11 6 - - S 1015,5 28
06.08.2020 07:00:00 17,6 16,3 9 5 - - S 1014,8 35
06.08.2020 06:00:00 17,1 16,2 9 5 - - S 1014,2 30
06.08.2020 05:00:00 16,7 15,3 9 5 - - S 1013,7 30
06.08.2020 04:00:00 17,3 15,7 9 5 - - S 1013,2 35
06.08.2020 03:00:00 17,5 15,9 15 8 - - S 1012,5 35
06.08.2020 02:00:00 17,2 15,3 11 6 - - S 1012,4 35
06.08.2020 01:00:00 17,6 15,1 15 8 - - S 1012,1 35
06.08.2020 00:00:00 18,3 15,1 13 7 - - S 1011,7 35
05.08.2020 23:00:00 19,5 15,3 22 12 - - SSW 1011,1 35
05.08.2020 22:00:00 19,1 15,5 21 11 - - SSW 1010,7 35
05.08.2020 21:00:00 19,7 16,0 13 7 - - SSW 1010,2 30
05.08.2020 20:00:00 19,0 16,2 13 7 50 27 SSW 1009,6 30
05.08.2020 19:00:00 21,5 13,9 26 14 46 25 SSW 1009,2 45
05.08.2020 18:00:00 22,8 13,6 28 15 46 25 SSW 1008,9 29
05.08.2020 17:00:00 23,4 13,5 29 16 55 30 SSW 1008,7 35
05.08.2020 16:00:00 23,4 13,7 39 21 55 30 SSW 1008,6 30
05.08.2020 15:00:00 23,2 14,5 34 18 52 28 SSW 1008,5 10
05.08.2020 14:00:00 24,6 14,1 31 17 54 29 SSW 1008,3 35
05.08.2020 13:00:00 24,7 15,1 34 18 57 31 SSW 1008,3 30
05.08.2020 12:00:00 22,5 15,1 34 18 55 30 SSW 1008,5 25
05.08.2020 11:00:00 20,5 14,5 37 20 57 31 SSW 1008,4 21
05.08.2020 10:00:00 19,2 14,7 31 17 52 28 SSW 1008,4 22
05.08.2020 09:00:00 17,9 15,1 24 13 - - S 1008,4 22
05.08.2020 08:00:00 17,6 14,7 29 16 55 30 SSW 1008,2 22
05.08.2020 07:00:00 16,8 14,4 29 16 - - SSW 1007,7 20
05.08.2020 06:00:00 16,6 14,1 26 14 - - S 1007,5 9
05.08.2020 05:00:00 16,5 13,7 18 10 - - S 1007,7 20
05.08.2020 04:00:00 16,5 13,6 22 12 - - S 1007,6 26
05.08.2020 03:00:00 16,6 13,3 26 14 - - S 1007,8 26
05.08.2020 02:00:00 17,1 13,2 21 11 - - S 1008,2 21
05.08.2020 01:00:00 17,3 13,0 18 10 - - S 1008,3 10
05.08.2020 00:00:00 18,3 12,9 31 17 50 27 SSW 1008,3 15
04.08.2020 23:00:00 19,0 12,6 29 16 48 26 SSW 1008,4 16
04.08.2020 22:00:00 18,9 11,1 24 13 - - S 1008,5 11
04.08.2020 21:00:00 19,4 10,5 26 14 - - S 1008,8 17
04.08.2020 20:00:00 19,3 9,9 26 14 50 27 SSW 1009,3 16
04.08.2020 19:00:00 20,0 9,9 26 14 48 26 S 1009,1 18
04.08.2020 18:00:00 20,4 8,7 29 16 50 27 S 1009,8 17
04.08.2020 17:00:00 18,5 7,7 29 16 46 25 S 1010,6 20
04.08.2020 16:00:00 18,6 7,2 29 16 46 25 SSW 1011,5 21
04.08.2020 15:00:00 18,1 7,2 26 14 - - SSW 1012,5 22
04.08.2020 14:00:00 17,2 8,4 24 13 - - SSW 1013,3 19
04.08.2020 13:00:00 16,0 9,4 22 12 - - SSW 1014,3 16
04.08.2020 12:00:00 16,7 7,3 24 13 - - SSW 1014,7 18
04.08.2020 11:00:00 17,3 7,4 22 12 - - S 1014,9 20
04.08.2020 10:00:00 16,3 7,1 16 9 - - S 1015,2 21
04.08.2020 09:00:00 14,6 8,9 13 7 - - SSW 1015,8 19
04.08.2020 08:00:00 12,5 9,7 9 5 - - SSW 1016,2 17
04.08.2020 07:00:00 9,9 8,6 8 4 - - SW 1015,9 15
04.08.2020 06:00:00 8,4 7,2 11 6 - - SW 1015,9 13
04.08.2020 05:00:00 8,8 7,3 11 6 - - SW 1016,2 13
04.08.2020 04:00:00 9,7 7,4 9 5 - - SW 1016,2 15
04.08.2020 03:00:00 10,3 7,8 9 5 - - WSW 1016,6 17
04.08.2020 02:00:00 10,7 8,4 9 5 - - WSW 1016,7 17
04.08.2020 01:00:00 11,3 8,9 11 6 - - SSW 1016,9 15
04.08.2020 00:00:00 11,5 9,1 13 7 - - SSW 1017,0 18
03.08.2020 23:00:00 11,9 9,0 9 5 - - S 1016,6 16
03.08.2020 22:00:00 13,3 9,1 8 4 - - S 1016,7 10
03.08.2020 21:00:00 14,0 7,7 11 6 - - SSE 1016,5 10
03.08.2020 20:00:00 15,5 7,4 11 6 - - ESE 1016,1 23
03.08.2020 19:00:00 15,5 7,0 11 6 - - ESE 1016,0 10
03.08.2020 18:00:00 15,6 8,5 13 7 - - E 1016,0 19
03.08.2020 17:00:00 15,4 9,4 15 8 - - ENE 1015,9 10
03.08.2020 16:00:00 16,0 10,5 18 10 - - ENE 1015,6 10
03.08.2020 15:00:00 15,8 9,7 15 8 - - NE 1015,8 18
03.08.2020 14:00:00 15,9 8,6 16 9 - - NNE 1015,8 20
03.08.2020 13:00:00 16,2 7,7 18 10 - - N 1015,9 19
03.08.2020 12:00:00 16,1 8,0 24 13 - - N 1015,9 20
03.08.2020 11:00:00 15,4 10,4 24 13 - - N 1015,7 17
03.08.2020 10:00:00 16,5 10,9 18 10 - - NNW 1015,5 18
03.08.2020 09:00:00 15,2 11,3 18 10 - - NW 1015,3 16
03.08.2020 08:00:00 14,2 11,6 13 7 - - W 1015,0 16
03.08.2020 07:00:00 11,6 10,3 15 8 - - W 1014,9 14
03.08.2020 06:00:00 10,2 8,9 9 5 - - W 1014,7 13
03.08.2020 05:00:00 10,1 8,3 9 5 - - WSW 1014,5 17
03.08.2020 04:00:00 11,0 8,8 8 4 - - WSW 1014,4 22
03.08.2020 03:00:00 10,3 8,4 9 5 - - WSW 1014,6 22
03.08.2020 02:00:00 11,5 9,1 9 5 - - W 1014,7 24
03.08.2020 01:00:00 12,4 9,1 11 6 - - W 1014,9 24
03.08.2020 00:00:00 12,3 8,8 8 4 - - WSW 1015,1 23
02.08.2020 23:00:00 13,8 9,3 11 6 - - W 1014,9 23
02.08.2020 22:00:00 14,7 10,1 5 3 - - SSE 1014,9 18
02.08.2020 21:00:00 14,4 11,1 8 4 - - SSE 1014,5 22
02.08.2020 20:00:00 16,8 12,4 9 5 - - E 1014,4 23
02.08.2020 19:00:00 16,3 12,4 15 8 - - NE 1014,1 19
02.08.2020 18:00:00 20,8 8,6 22 12 - - W 1013,7 24
02.08.2020 17:00:00 21,0 8,5 22 12 - - W 1013,8 24
02.08.2020 16:00:00 20,8 9,8 21 11 - - W 1013,8 26
02.08.2020 15:00:00 20,6 9,4 18 10 - - WSW 1014,0 22
02.08.2020 14:00:00 20,9 10,2 28 15 - - SSW 1013,9 22
02.08.2020 13:00:00 19,4 9,3 16 9 - - WSW 1014,3 25
02.08.2020 12:00:00 19,5 9,7 22 12 - - SW 1014,2 21
02.08.2020 11:00:00 18,7 11,2 21 11 - - SW 1014,4 20
02.08.2020 10:00:00 17,1 11,2 21 11 - - WSW 1014,4 18
02.08.2020 09:00:00 16,0 11,2 21 11 - - SW 1014,5 22
02.08.2020 08:00:00 14,4 10,8 16 9 - - SW 1014,6 10
02.08.2020 07:00:00 12,5 10,6 16 9 - - SW 1014,5 18
02.08.2020 06:00:00 11,0 9,5 13 7 - - SSW 1014,4 17
02.08.2020 05:00:00 11,2 9,3 11 6 - - SW 1014,3 18
02.08.2020 04:00:00 11,3 9,6 13 7 - - SW 1014,2 20
02.08.2020 03:00:00 11,7 9,4 13 7 - - SW 1014,4 20
02.08.2020 02:00:00 13,7 9,6 9 5 - - WSW 1014,4 18
02.08.2020 01:00:00 14,5 9,8 9 5 - - WSW 1014,6 10
02.08.2020 00:00:00 14,8 10,4 11 6 - - W 1014,6 18
01.08.2020 23:00:00 15,7 10,6 13 7 - - W 1014,6 18
01.08.2020 22:00:00 16,4 11,1 16 9 - - W 1014,4 18
01.08.2020 21:00:00 17,7 12,4 11 6 - - W 1014,0 19
01.08.2020 20:00:00 18,9 12,8 22 12 - - WNW 1013,7 18
01.08.2020 19:00:00 20,1 14,4 21 11 - - WNW 1013,3 19
01.08.2020 18:00:00 20,4 14,8 24 13 - - WNW 1013,2 17
01.08.2020 17:00:00 19,8 15,4 9 5 - - SW 1013,4 12
01.08.2020 16:00:00 20,8 14,2 8 4 - - NE 1013,2 16
01.08.2020 15:00:00 21,7 14,5 11 6 - - NE 1013,1 17
01.08.2020 14:00:00 22,5 13,7 15 8 - - WSW 1012,8 19
01.08.2020 13:00:00 22,9 14,4 13 7 - - WSW 1012,8 18
01.08.2020 12:00:00 21,6 13,8 18 10 - - WSW 1012,8 21
01.08.2020 11:00:00 20,6 14,4 21 11 - - SW 1012,7 19
01.08.2020 10:00:00 19,4 13,9 15 8 - - WSW 1012,5 17
01.08.2020 09:00:00 18,2 13,8 15 8 - - WSW 1012,2 17
01.08.2020 08:00:00 16,9 14,0 18 10 - - SW 1012,1 17
01.08.2020 07:00:00 15,6 13,5 16 9 - - SW 1011,7 16
01.08.2020 06:00:00 15,2 13,2 21 11 - - WSW 1011,3 17
01.08.2020 05:00:00 16,9 15,8 13 7 - - WSW 1010,7 9
01.08.2020 04:00:00 17,9 16,8 9 5 - - SW 1010,4 6
01.08.2020 03:00:00 17,8 16,2 8 4 - - SW 1010,4 11
01.08.2020 02:00:00 18,1 16,1 5 3 - - WNW 1010,6 14
01.08.2020 01:00:00 19,6 17,5 15 8 - - W 1010,2 10
01.08.2020 00:00:00 21,6 18,9 16 9 - - WSW 1008,9 8
31.07.2020 23:00:00 22,2 17,9 15 8 - - SW 1008,2 13
31.07.2020 22:00:00 21,1 16,7 9 5 - - S 1007,6 12

tt = temperature
td = dewpoint
ff = wind speed
fx = gusts
dd = wind direction
ppp = reduced air pressure
vv = visibility

Next stations